This demonstration page uses our WeatherBlox Daily Observations layout. Learn more.

41.55636, -103.73856

Hourly Observations for July 20, 2019

Temp ( °F °C ) Dew Point ( °F °C ) Humidity (%) Winds ( mph kmh ) Pressure ( in mb ) Visibility ( mi km ) Precip ( " mm )
12:53 am 00:53 Clear 71 21.7 66 18.9 84 84 ESE 3 6 29.62 1003 10 16.09344 0 0
1:53 am 01:53 Clear 68 20 66 18.9 93 93 undefined N/A 29.62 1003 10 16.09344 0 0
2:53 am 02:53 Clear 68 20 66 18.9 93 93 NW 5 7 29.65 1004 9 14.484096 0 0
3:53 am 03:53 Clear 65 18.3 64 17.8 97 97 Calm 29.65 1004 7 11.265408 0 0
4:53 am 04:53 Clear 66 18.9 64 17.8 93 93 WNW 12 19 29.68 1005 8 12.874752 0 0
5:53 am 05:53 Mostly Cloudy 66 18.9 64 17.8 93 93 WNW 10 17 29.74 1007 10 16.09344 0 0
6:04 am 06:04 Mostly Cloudy 66 19 64 18 94 94 NW 7 11 29.77 1008 10 16.09344 0 0
6:26 am 06:26 Cloudy 69 20.6 65 18.3 87 87 W 6 9 29.74 1007 10 16.09344 0 0
6:53 am 06:53 Cloudy 72 22.2 68 20 87 87 N 12 19 29.77 1008 10 16.09344 0 0
7:22 am 07:22 Cloudy 70 21 66 19 88 88 N 12 19 29.77 1008 10 16.09344 0 0
7:53 am 07:53 Cloudy 68 20 65 18.3 90 90 N 16 26 29.83 1010 10 16.09344 0 0
8:53 am 08:53 Cloudy 66 18.9 62 16.7 87 87 N 15 24 29.85 1011 10 16.09344 0 0
9:29 am 09:29 Cloudy 66 18.9 61 16.1 84 84 NNE 16 26 29.85 1011 10 16.09344 0 0
9:53 am 09:53 Cloudy 66 18.9 61 16.1 84 84 NNE 10 17 29.88 1012 10 16.09344 0 0
10:53 am 10:53 Cloudy 68 20 62 16.7 81 81 NE 10 17 29.94 1014 10 16.09344 0 0
11:53 am 11:53 Cloudy 68 20 62 16.7 81 81 NE 12 19 29.94 1014 10 16.09344 0 0
12:36 pm 12:36 Cloudy 71 21.7 63 17.2 76 76 NNE 12 19 29.88 1012 10 16.09344 0 0
12:53 pm 12:53 Cloudy 74 23.3 63 17.2 69 69 NE 9 15 29.94 1014 10 16.09344 0 0
1:04 pm 13:04 Mostly Cloudy 76 24.4 63 17.2 64 64 ENE 8 13 29.85 1011 10 16.09344 0 0
1:53 pm 13:53 Cloudy 79 26.1 62 16.7 56 56 NE 13 20 29.91 1013 10 16.09344 0 0
2:53 pm 14:53 Partly Cloudy 84 28.9 62 16.7 48 48 ENE 12 19 29.91 1013 10 16.09344 0 0
3:53 pm 15:53 Mostly Sunny 84 28.9 63 17.2 49 49 ENE 14 22 29.88 1012 10 16.09344 0 0
4:53 pm 16:53 Mostly Sunny 82 27.8 63 17.2 53 53 ENE 12 19 29.88 1012 10 16.09344 0 0
5:53 pm 17:53 Sunny 79 26.1 62 16.7 56 56 ENE 13 20 29.91 1013 10 16.09344 0 0
6:53 pm 18:53 Sunny 78 25.6 62 16.7 58 58 E 12 19 29.88 1012 10 16.09344 0 0
7:53 pm 19:53 Sunny 74 23.3 61 16.1 64 64 ENE 7 11 29.94 1014 10 16.09344 0 0
8:53 pm 20:53 Mostly Cloudy 73 22.8 61 16.1 66 66 ENE 7 11 29.94 1014 10 16.09344 0 0
9:53 pm 21:53 Cloudy 73 22.8 62 16.7 69 69 N 6 9 29.97 1015 10 16.09344 0 0
10:53 pm 22:53 Cloudy 70 21.1 63 17.2 79 79 NNE 13 20 30 1016 10 16.09344 0.001 0.001
11:53 pm 23:53 Cloudy with Light Rain 65 18.3 62 16.7 90 90 WNW 15 24 30.03 1017 10 16.09344 0.001 0.001

Powered by AerisWeather